TimeMST,TemperatureF,Dew PointF,Humidity,Sea Level PressureIn,VisibilityMPH,Wind Direction,Wind SpeedMPH,Gust SpeedMPH,PrecipitationIn,Events,Conditions,WindDirDegrees,DateUTC
12:15 AM,21.2,15.8,80,30.17,10.0,South,4.6,-,N/A,,Clear,170,2013-01-02 07:15:00
12:35 AM,24.8,19.4,80,30.16,10.0,South,3.5,-,N/A,,Clear,170,2013-01-02 07:35:00
12:55 AM,23.0,17.6,80,30.16,10.0,Calm,Calm,-,N/A,,Clear,0,2013-01-02 07:55:00
1:15 AM,23.0,17.6,80,30.16,10.0,Calm,Calm,-,N/A,,Clear,0,2013-01-02 08:15:00
1:35 AM,23.0,17.6,80,30.16,10.0,Calm,Calm,-,N/A,,Clear,0,2013-01-02 08:35:00
1:55 AM,23.0,19.4,86,30.16,10.0,Calm,Calm,-,N/A,,Clear,0,2013-01-02 08:55:00
2:15 AM,21.2,17.6,86,30.16,10.0,ESE,3.5,-,N/A,,Clear,120,2013-01-02 09:15:00
2:35 AM,21.2,17.6,86,30.16,10.0,Calm,Calm,-,N/A,,Clear,0,2013-01-02 09:35:00
2:55 AM,19.4,15.8,86,30.16,10.0,SSE,3.5,-,N/A,,Clear,160,2013-01-02 09:55:00
3:15 AM,19.4,14.0,80,30.16,10.0,South,3.5,-,N/A,,Clear,170,2013-01-02 10:15:00
3:35 AM,19.4,14.0,80,30.16,10.0,Calm,Calm,-,N/A,,Clear,0,2013-01-02 10:35:00
3:55 AM,21.2,17.6,86,30.15,10.0,South,6.9,-,N/A,,Clear,180,2013-01-02 10:55:00
4:15 AM,26.6,19.4,74,30.14,10.0,South,6.9,-,N/A,,Clear,170,2013-01-02 11:15:00
4:35 AM,17.6,12.2,79,30.15,10.0,NE,4.6,-,N/A,,Clear,50,2013-01-02 11:35:00
5:15 AM,17.6,14.0,86,30.15,10.0,Calm,Calm,-,N/A,,Clear,0,2013-01-02 12:15:00
5:35 AM,17.6,14.0,86,30.15,10.0,Calm,Calm,-,N/A,,Clear,0,2013-01-02 12:35:00
5:55 AM,17.6,14.0,86,30.15,10.0,SE,5.8,-,N/A,,Clear,140,2013-01-02 12:55:00
6:15 AM,15.8,12.2,86,30.15,10.0,SE,4.6,-,N/A,,Clear,140,2013-01-02 13:15:00
6:35 AM,26.6,17.6,69,30.15,10.0,SSE,8.1,-,N/A,,Clear,160,2013-01-02 13:35:00
6:55 AM,26.6,17.6,69,30.16,10.0,SSE,8.1,-,N/A,,Clear,160,2013-01-02 13:55:00
7:15 AM,24.8,15.8,69,30.16,10.0,SSE,4.6,-,N/A,,Clear,150,2013-01-02 14:15:00
7:35 AM,23.0,14.0,68,30.17,10.0,Calm,Calm,-,N/A,,Clear,0,2013-01-02 14:35:00
8:15 AM,30.2,17.6,60,30.18,10.0,SSE,9.2,-,N/A,,Clear,150,2013-01-02 15:15:00
8:35 AM,32.0,17.6,55,30.17,10.0,SSE,12.7,16.1,N/A,,Clear,150,2013-01-02 15:35:00
8:55 AM,32.0,17.6,55,30.17,10.0,SSE,12.7,-,N/A,,Clear,150,2013-01-02 15:55:00
9:15 AM,33.8,19.4,56,30.18,10.0,SSE,13.8,17.3,N/A,,Clear,150,2013-01-02 16:15:00
9:35 AM,35.6,19.4,52,30.18,10.0,SSE,12.7,-,N/A,,Clear,150,2013-01-02 16:35:00
9:55 AM,37.4,19.4,48,30.19,10.0,SSE,13.8,-,N/A,,Clear,150,2013-01-02 16:55:00
10:15 AM,39.2,19.4,45,30.18,10.0,SE,15.0,-,N/A,,Clear,140,2013-01-02 17:15:00
10:35 AM,41.0,19.4,42,30.18,10.0,SE,13.8,-,N/A,,Clear,140,2013-01-02 17:35:00
10:55 AM,42.8,19.4,39,30.17,10.0,SE,16.1,-,N/A,,Clear,130,2013-01-02 17:55:00
11:15 AM,44.6,19.4,37,30.16,10.0,SE,16.1,-,N/A,,Clear,130,2013-01-02 18:15:00
11:35 AM,44.6,17.6,34,30.15,10.0,SE,20.7,26.5,N/A,,Clear,130,2013-01-02 18:35:00
11:55 AM,44.6,17.6,34,30.14,10.0,SE,19.6,25.3,N/A,,Clear,130,2013-01-02 18:55:00
12:15 PM,44.6,17.6,34,30.14,10.0,SE,18.4,23.0,N/A,,Clear,130,2013-01-02 19:15:00
12:35 PM,46.4,17.6,32,30.12,10.0,SE,16.1,24.2,N/A,,Clear,130,2013-01-02 19:35:00
12:55 PM,46.4,19.4,34,30.10,10.0,ESE,17.3,23.0,N/A,,Clear,120,2013-01-02 19:55:00
1:15 PM,46.4,19.4,34,30.10,10.0,SE,15.0,21.9,N/A,,Clear,130,2013-01-02 20:15:00
1:35 PM,48.2,17.6,30,30.09,10.0,ESE,20.7,27.6,N/A,,Clear,120,2013-01-02 20:35:00
1:55 PM,48.2,19.4,32,30.08,10.0,ESE,13.8,21.9,N/A,,Clear,120,2013-01-02 20:55:00
2:15 PM,48.2,19.4,32,30.08,10.0,ESE,13.8,20.7,N/A,,Clear,120,2013-01-02 21:15:00
2:35 PM,48.2,19.4,32,30.08,10.0,ESE,13.8,20.7,N/A,,Clear,120,2013-01-02 21:35:00
2:55 PM,48.2,19.4,32,30.07,10.0,ESE,15.0,18.4,N/A,,Clear,110,2013-01-02 21:55:00
3:15 PM,48.2,17.6,30,30.07,10.0,ESE,13.8,-,N/A,,Clear,120,2013-01-02 22:15:00
3:35 PM,46.4,19.4,34,30.07,10.0,SE,11.5,20.7,N/A,,Clear,130,2013-01-02 22:35:00
4:15 PM,46.4,17.6,32,30.07,10.0,ESE,13.8,18.4,N/A,,Clear,120,2013-01-02 23:15:00
4:35 PM,46.4,17.6,32,30.07,10.0,ESE,15.0,19.6,N/A,,Clear,110,2013-01-02 23:35:00
4:55 PM,44.6,17.6,34,30.07,10.0,SE,9.2,-,N/A,,Clear,130,2013-01-02 23:55:00
5:15 PM,42.8,17.6,36,30.07,10.0,ESE,9.2,-,N/A,,Clear,120,2013-01-03 00:15:00
5:35 PM,41.0,17.6,39,30.07,10.0,ESE,8.1,-,N/A,,Clear,120,2013-01-03 00:35:00
5:55 PM,39.2,17.6,42,30.07,10.0,SE,5.8,-,N/A,,Clear,130,2013-01-03 00:55:00
6:15 PM,35.6,15.8,44,30.07,10.0,SE,5.8,-,N/A,,Clear,130,2013-01-03 01:15:00
6:55 PM,33.8,15.8,48,30.08,10.0,SE,5.8,-,N/A,,Clear,140,2013-01-03 01:55:00
7:15 PM,32.0,15.8,51,30.08,10.0,SSE,5.8,-,N/A,,Clear,160,2013-01-03 02:15:00
7:35 PM,32.0,15.8,51,30.08,10.0,SSE,8.1,-,N/A,,Clear,160,2013-01-03 02:35:00
7:55 PM,33.8,17.6,52,30.10,10.0,SSE,8.1,-,N/A,,Clear,160,2013-01-03 02:55:00
8:15 PM,33.8,17.6,52,30.10,10.0,SSE,9.2,-,N/A,,Clear,150,2013-01-03 03:15:00
8:35 PM,33.8,15.8,48,30.10,10.0,SE,8.1,-,N/A,,Clear,140,2013-01-03 03:35:00
8:55 PM,32.0,17.6,55,30.10,10.0,SSE,8.1,-,N/A,,Clear,160,2013-01-03 03:55:00
9:15 PM,32.0,15.8,51,30.10,10.0,SSE,8.1,-,N/A,,Clear,160,2013-01-03 04:15:00
9:35 PM,32.0,15.8,51,30.10,10.0,SSE,6.9,-,N/A,,Clear,150,2013-01-03 04:35:00
9:55 PM,32.0,15.8,51,30.11,10.0,South,8.1,-,N/A,,Clear,170,2013-01-03 04:55:00
10:15 PM,32.0,14.0,48,30.10,10.0,SSE,9.2,-,N/A,,Clear,160,2013-01-03 05:15:00
10:35 PM,32.0,14.0,48,30.11,10.0,SSE,8.1,-,N/A,,Clear,160,2013-01-03 05:35:00
10:55 PM,32.0,14.0,48,30.11,10.0,South,8.1,-,N/A,,Clear,170,2013-01-03 05:55:00
11:15 PM,32.0,14.0,48,30.11,10.0,SSE,9.2,-,N/A,,Clear,160,2013-01-03 06:15:00
11:35 PM,32.0,14.0,48,30.11,10.0,SSE,10.4,-,N/A,,Clear,160,2013-01-03 06:35:00
11:55 PM,32.0,14.0,48,30.11,10.0,SSE,9.2,-,N/A,,Clear,160,2013-01-03 06:55:00